Temperature
2 2 2 1 1 1 1 1 2 3 3 2 1 -1 -2 -3 -3 -3 -3 -4 -3 -3 -3 -2 -2 -2 -2 -2 -2 -2 -1 -1 -1 -1 -1 -1 -1 -1 -1 -1 -1 -1 -1 -1
0 1 1 0 0 0 -0 0 0 1 1 0 -1 -2 -3 -4 -4 -4 -4 -4 -4 -4 -4 -3 -3 -3 -2 -2 -2 -2 -2 -2 -2 -2 -2 -2 -2 -2 -2 -2 -2 -2 -2 -2
1 0 0 1 0 -0 -0 -1 -1 0 0 -2 -2 -3 -4 -5 -5 -5 -5 -5 -5 -5 -4 -4 -4 -3 -3 -3 -3 -3 -3 -3 -3 -3 -2 -2 -2 -2 -2 -2 -2 -2 -2 -2
0 -0 0 1 -1 -1 -1 -2 -2 -2 -3 -3 -3 -4 -5 -5 -5 -5 -6 -6 -5 -5 -5 -4 -4 -4 -4 -4 -4 -3 -3 -3 -3 -3 -3 -3 -3 -3 -3 -3 -3 -3 -3 -3
-0 1 1 -0 -2 -3 -3 -2 -3 -4 -4 -4 -6 -5 -4 -5 -6 -6 -6 -6 -6 -6 -5 -5 -5 -5 -4 -4 -4 -4 -4 -4 -4 -4 -4 -3 -4 -4 -4 -4 -4 -4 -4 -4
-1 0 1 0 -3 -5 -3 -2 -4 -5 -5 -6 -6 -3 -3 -6 -6 -6 -6 -6 -6 -6 -6 -6 -5 -5 -5 -5 -5 -5 -5 -5 -4 -4 -4 -4 -4 -4 -4 -4 -4 -4 -4 -4
-1 -1 -0 -3 -5 -4 -2 -2 -5 -6 -6 -7 -6 -5 -6 -7 -7 -7 -7 -7 -7 -7 -6 -6 -6 -6 -6 -6 -6 -6 -6 -5 -5 -5 -5 -5 -5 -5 -5 -5 -5 -5 -5 -5
-2 -2 -1 -5 -5 -4 -4 -6 -6 -7 -7 -7 -7 -8 -8 -8 -8 -8 -7 -7 -7 -7 -7 -7 -7 -7 -7 -7 -7 -6 -6 -6 -6 -6 -6 -6 -6 -6 -6 -6 -6 -6 -6 -6
-3 -3 -5 -6 -6 -7 -7 -7 -7 -7 -8 -8 -8 -9 -9 -8 -8 -8 -8 -8 -8 -8 -8 -8 -8 -7 -7 -7 -7 -7 -7 -7 -7 -7 -7 -7 -7 -7 -7 -7 -7 -7 -7 -7
-6 -5 -6 -7 -7 -7 -7 -8 -8 -8 -8 -9 -9 -9 -9 -9 -9 -9 -9 -9 -8 -8 -8 -8 -8 -8 -8 -8 -8 -8 -8 -8 -8 -8 -8 -8 -8 -8 -8 -8 -8 -8 -8 -8
-6 -6 -7 -8 -8 -8 -8 -8 -9 -9 -9 -9 -9 -9 -9 -10 -10 -9 -9 -9 -9 -9 -9 -9 -9 -9 -9 -9 -8 -8 -8 -8 -8 -8 -8 -8 -8 -8 -8 -8 -8 -8 -8 -9
-5 -6 -7 -7 -8 -8 -9 -9 -9 -9 -9 -9 -10 -10 -10 -10 -10 -10 -10 -10 -10 -10 -9 -9 -9 -9 -9 -9 -9 -9 -9 -9 -9 -9 -9 -9 -9 -9 -9 -9 -9 -9 -9 -9
-8 -8 -8 -8 -8 -9 -9 -9 -9 -10 -10 -10 -10 -10 -10 -10 -10 -10 -10 -10 -10 -10 -10 -10 -10 -10 -10 -10 -10 -9 -9 -10 -10 -10 -10 -10 -10 -10 -10 -10 -10 -10 -10 -10
-8 -9 -9 -9 -9 -9 -10 -10 -10 -10 -10 -10 -10 -10 -10 -10 -11 -11 -11 -11 -11 -11 -11 -11 -11 -10 -10 -10 -10 -10 -10 -10 -10 -10 -10 -10 -10 -10 -10 -10 -10 -10 -10 -10
-9 -9 -10 -10 -10 -10 -10 -10 -10 -10 -10 -11 -11 -11 -11 -11 -11 -11 -11 -11 -11 -11 -11 -11 -11 -11 -11 -11 -11 -11 -11 -11 -11 -11 -11 -11 -11 -11 -11 -11 -11 -11 -11 -11
-10 -10 -10 -10 -10 -10 -11 -11 -11 -11 -11 -11 -11 -11 -11 -11 -12 -12 -12 -12 -12 -12 -12 -12 -12 -12 -12 -11 -11 -11 -11 -11 -11 -11 -11 -11 -11 -11 -12 -12 -12 -11 -11 -11
-11 -11 -11 -11 -11 -11 -11 -11 -11 -11 -11 -12 -12 -12 -12 -12 -12 -12 -12 -12 -12 -12 -12 -12 -12 -12 -12 -12 -12 -12 -12 -12 -12 -12 -12 -12 -12 -12 -12 -12 -12 -12 -12 -12
-10 -10 -10 -11 -11 -11 -11 -11 -11 -12 -12 -12 -12 -12 -12 -12 -12 -12 -13 -13 -12 -13 -13 -13 -13 -13 -12 -12 -12 -12 -12 -12 -12 -12 -12 -12 -12 -12 -12 -12 -12 -12 -12 -12
-11 -11 -11 -11 -11 -11 -11 -12 -12 -12 -12 -12 -12 -13 -13 -13 -13 -13 -13 -13 -13 -13 -13 -13 -13 -13 -13 -13 -13 -13 -13 -13 -13 -13 -13 -13 -13 -13 -13 -13 -13 -13 -13 -13
-11 -11 -11 -11 -11 -11 -12 -12 -12 -12 -13 -13 -13 -13 -13 -13 -13 -13 -13 -13 -13 -13 -13 -13 -13 -13 -13 -13 -13 -13 -13 -13 -13 -13 -13 -13 -13 -13 -13 -13 -13 -13 -13 -13
-11 -11 -11 -11 -12 -12 -12 -12 -13 -13 -13 -13 -13 -13 -13 -13 -14 -14 -14 -14 -14 -14 -14 -14 -14 -14 -14 -14 -13 -13 -13 -13 -14 -14 -14 -14 -14 -14 -14 -14 -14 -14 -14 -14
-11 -11 -12 -12 -12 -12 -13 -13 -13 -13 -13 -14 -14 -14 -14 -14 -14 -14 -14 -14 -14 -14 -14 -14 -14 -14 -14 -14 -14 -14 -14 -14 -14 -14 -14 -14 -14 -14 -14 -14 -14 -14 -14 -14
-12 -12 -12 -12 -13 -13 -13 -13 -13 -14 -14 -14 -14 -14 -14 -14 -14 -14 -14 -14 -14 -15 -15 -15 -15 -15 -15 -15 -14 -14 -15 -15 -15 -15 -15 -15 -15 -14 -14 -14 -14 -14 -14 -14
-12 -12 -13 -13 -13 -13 -13 -14 -14 -14 -14 -14 -14 -14 -15 -15 -15 -15 -15 -15 -15 -15 -15 -15 -15 -15 -15 -15 -15 -15 -15 -15 -15 -15 -15 -15 -15 -15 -15 -15 -15 -15 -15 -15
-13 -13 -13 -13 -14 -14 -14 -14 -14 -14 -14 -14 -15 -15 -15 -15 -15 -15 -15 -15 -15 -15 -15 -15 -15 -15 -15 -15 -15 -15 -15 -15 -15 -16 -16 -16 -16 -16 -16 -16 -15 -15 -15 -15
-13 -13 -14 -14 -14 -14 -14 -14 -15 -15 -15 -15 -15 -15 -15 -15 -15 -15 -15 -15 -15 -16 -16 -16 -16 -16 -16 -16 -16 -16 -16 -16 -16 -16 -16 -16 -16 -16 -16 -16 -16 -16 -16 -16
-14 -14 -14 -14 -15 -15 -15 -15 -15 -15 -15 -15 -15 -15 -16 -16 -16 -16 -16 -16 -16 -16 -16 -16 -16 -16 -16 -16 -16 -16 -16 -16 -16 -16 -16 -16 -16 -16 -16 -16 -16 -16 -16 -16
Wind_Speed
8 8 6 8 9 8 9 10 10 12 12 12 9 8 8 7 6 4 4 4 4 3 2 2 2 2 3 3 3 3 4 4 5 4 5 5 5 5 5 5 5 6 6 6
6 7 7 9 10 9 10 10 12 13 13 8 7 6 6 6 5 4 5 5 5 4 3 2 2 2 2 2 3 3 3 3 3 4 4 5 5 5 5 5 5 5 6 6
6 4 5 8 7 7 6 6 7 10 8 6 7 7 7 6 4 4 5 5 5 5 3 3 2 2 2 2 2 2 2 2 2 3 4 4 5 5 5 5 5 5 5 6
3 2 7 3 1 3 6 6 5 6 6 7 7 7 6 4 4 6 6 5 5 5 4 3 2 1 1 1 2 2 2 2 2 2 3 3 4 5 5 4 4 4 4 5
3 5 7 4 1 1 4 6 3 6 7 7 7 6 3 2 5 6 6 5 4 4 3 2 1 0 0 1 1 1 1 1 1 2 2 3 4 4 4 4 4 4 4 4
3 5 6 3 1 2 2 5 1 4 6 5 4 4 4 5 6 6 5 4 4 3 2 2 2 1 1 1 1 0 0 0 0 1 2 2 3 3 3 3 3 3 2 3
6 6 6 2 1 1 3 4 3 4 5 4 4 5 5 6 5 4 4 4 3 3 2 2 2 1 1 1 1 1 1 1 0 0 1 1 1 1 2 2 2 2 2 2
4 6 6 1 2 3 3 4 4 4 5 5 5 5 4 4 4 4 4 4 3 3 3 3 3 2 1 1 1 1 1 1 1 1 0 1 1 1 2 2 3 3 2 2
5 5 2 1 2 2 3 4 4 5 5 4 4 4 4 4 4 3 3 3 3 3 3 3 3 2 2 3 2 1 2 1 1 1 1 1 1 1 2 2 2 2 2 2
4 6 5 3 3 4 3 3 4 4 4 3 3 4 3 3 3 3 3 3 3 3 3 3 4 3 3 3 2 1 1 1 1 1 1 1 0 0 1 2 2 2 2 2
5 5 4 4 4 4 3 3 3 3 3 2 3 3 3 3 2 2 2 3 2 2 2 3 4 4 4 3 2 1 1 1 1 1 1 1 1 1 1 1 2 2 2 2
5 4 4 5 4 3 3 3 3 2 3 3 2 3 3 2 2 2 2 2 2 2 3 3 4 4 4 3 2 1 1 1 0 0 0 0 0 1 2 1 1 2 2 2
4 3 3 3 3 2 2 3 2 2 2 2 2 2 2 2 2 1 1 2 2 2 2 3 3 4 4 3 2 1 1 1 1 0 0 0 0 0 1 1 1 1 1 1
2 1 2 3 2 2 2 2 2 2 2 1 2 2 1 2 2 2 2 2 2 2 2 2 3 4 4 3 2 1 1 1 1 1 1 1 1 1 1 1 1 1 1 1
2 2 3 1 1 1 1 1 1 1 2 2 2 2 2 2 2 2 2 2 2 2 2 3 3 4 4 3 2 2 1 1 1 1 1 1 1 1 1 1 1 1 1 1
1 1 1 1 2 2 1 1 1 2 2 2 2 2 2 2 2 2 2 2 1 2 2 3 3 4 4 3 2 2 1 1 2 1 1 1 1 1 1 1 1 1 1 1
1 1 2 2 3 3 3 2 2 2 2 2 2 2 2 2 2 2 2 2 2 2 3 3 3 4 3 3 2 2 1 1 2 1 1 1 1 1 1 2 2 2 2 2
2 2 2 2 3 3 2 2 2 2 2 2 1 1 1 1 2 2 2 2 2 3 3 4 3 3 3 3 2 2 1 1 1 1 1 1 2 2 2 2 2 2 2 3
0 0 0 1 1 1 1 1 1 1 1 1 0 1 1 2 2 2 1 1 2 3 4 4 4 3 3 3 3 2 1 1 2 2 1 2 2 2 2 2 2 3 3 3
1 1 1 1 1 1 0 1 1 1 1 0 0 1 1 2 2 1 1 1 2 3 4 4 3 3 2 2 3 2 2 2 2 2 2 2 2 2 2 3 3 3 3 3
1 1 1 1 1 1 1 1 1 1 1 1 0 1 1 2 2 1 1 2 3 4 4 4 3 3 2 2 2 1 1 2 2 2 2 2 3 3 3 3 3 3 3 3
1 1 1 1 1 1 2 1 1 1 1 1 1 1 1 2 2 1 1 2 4 5 4 3 3 4 4 3 2 1 2 2 2 3 3 3 3 3 3 3 3 4 4 4
1 1 1 1 1 1 2 2 1 1 1 1 1 1 1 2 2 2 3 3 3 5 4 3 4 6 5 3 2 2 2 2 3 3 3 3 4 4 4 4 4 4 4 4
1 1 1 1 1 1 1 2 1 1 1 1 2 2 2 2 2 2 3 4 5 5 3 5 6 6 5 3 2 2 3 3 3 3 4 4 4 4 4 4 4 4 5 5
1 1 1 1 1 0 1 1 1 1 2 2 2 2 2 2 3 3 3 4 5 5 4 5 7 6 4 3 3 3 3 3 4 4 4 4 4 4 5 5 5 5 5 5
1 1 0 1 1 1 1 1 1 1 2 2 2 2 2 2 3 3 3 3 4 5 4 4 4 5 3 3 4 4 4 4 5 4 4 4 5 5 5 5 6 5 5 6
1 0 0 1 1 1 1 1 1 2 2 2 3 3 3 3 3 3 3 3 3 3 4 4 4 4 4 4 4 4 4 4 4 4 5 5 5 5 5 6 6 6 6 6
Wind_Direction
257 270 266 266 270 253 235 244 251 262 267 287 309 311 312 318 322 324 329 335 330 316 306 282 247 226 214 210 204 199 198 201 206 207 202 197 194 191 190 191 193 192 193 197
261 263 264 275 276 261 249 250 253 263 272 306 323 327 327 329 326 318 317 319 322 323 317 297 275 250 229 216 209 201 200 205 207 201 198 194 190 186 186 188 190 192 194 195
258 275 283 268 265 242 239 237 243 256 277 326 318 312 313 312 311 310 312 314 313 312 306 294 276 267 241 224 208 196 193 197 196 195 194 194 189 182 187 190 191 197 200 197
252 251 242 258 53 248 247 252 252 273 301 309 304 303 299 301 306 313 315 310 309 312 311 303 291 290 273 211 190 180 178 183 186 187 196 192 186 185 187 188 192 198 202 202
216 243 261 266 265 251 250 265 261 279 299 321 330 311 288 326 324 317 314 309 305 306 304 310 315 320 139 143 139 154 169 190 186 184 188 188 185 186 186 188 194 199 199 201
219 240 252 276 357 328 248 258 298 296 294 313 322 291 302 331 326 323 329 332 333 329 330 340 348 18 107 109 103 42 304 280 235 190 184 188 193 187 184 186 192 188 191 203
235 243 259 320 347 155 225 293 324 287 283 274 265 282 306 318 323 328 337 343 351 1 358 353 357 26 73 67 350 334 359 28 37 153 180 165 156 166 164 167 169 176 190 203
220 232 252 80 143 210 284 331 315 300 286 274 284 304 307 313 324 339 347 353 360 6 4 3 9 26 27 355 343 17 53 52 35 31 80 132 132 141 149 159 167 176 184 190
213 234 312 207 236 289 316 307 312 309 303 289 290 297 307 314 325 339 346 351 356 360 3 5 8 20 11 343 358 46 61 52 41 34 50 101 145 151 152 169 181 186 190 191
244 259 276 280 277 303 309 306 315 313 306 286 288 292 306 315 323 334 339 345 351 0 1 356 359 3 357 347 360 55 56 39 38 53 57 64 84 160 174 190 198 198 201 202
247 272 291 266 273 282 297 314 321 322 318 298 292 294 300 305 312 319 330 338 347 350 344 343 351 355 353 352 12 52 50 37 36 46 67 52 29 350 264 240 235 224 222 215
249 248 250 275 289 281 278 290 301 312 325 327 306 292 298 303 309 316 327 337 344 344 342 341 346 348 346 347 358 36 44 19 16 26 25 44 47 13 11 304 303 274 258 252
255 281 272 278 294 290 278 286 299 297 302 315 324 319 317 320 320 327 332 335 330 326 330 336 342 344 343 344 350 3 329 322 330 330 319 291 269 271 319 0 12 305 254 241
258 261 271 269 283 300 301 308 325 334 340 349 358 358 356 348 340 336 331 329 328 329 337 341 342 340 339 339 341 340 326 317 300 296 287 278 267 274 274 269 283 298 317 298
261 259 255 280 314 329 333 354 7 346 357 6 13 14 8 354 335 327 333 340 342 344 342 343 339 334 337 334 330 326 317 308 296 284 274 267 268 269 269 261 264 277 294 298
280 271 201 224 260 292 315 300 280 289 315 336 348 347 341 336 331 334 342 350 346 329 328 331 327 328 333 329 319 312 309 311 295 277 267 267 267 265 261 254 255 259 264 284
187 226 234 261 270 280 279 269 260 265 284 294 307 329 343 352 349 342 340 337 327 316 320 321 319 327 330 323 313 306 303 304 306 290 278 273 271 270 264 256 259 268 276 284
239 242 239 247 258 265 279 284 275 276 278 287 313 330 320 308 302 306 314 329 336 337 333 326 326 330 328 325 318 311 304 300 304 288 277 274 269 266 263 265 264 268 279 283
187 180 253 275 273 258 268 282 293 300 303 297 278 284 291 293 294 299 314 333 329 326 329 330 333 332 324 326 321 304 300 297 296 290 274 276 276 269 263 264 266 267 270 273
77 70 76 61 44 56 336 335 346 346 337 334 329 325 318 312 313 317 321 314 308 310 320 329 332 326 318 319 318 307 301 294 291 293 286 272 269 270 269 267 269 270 271 269
106 94 82 63 41 28 15 11 14 350 342 351 326 290 306 327 335 328 323 321 330 330 328 329 332 326 322 315 309 306 307 303 296 291 287 281 274 272 272 271 271 270 271 271
140 119 101 82 65 21 10 18 28 13 6 4 353 345 344 338 340 338 313 305 322 333 335 329 327 327 328 323 311 300 294 291 289 286 283 281 276 273 272 273 271 271 270 270
155 141 132 121 100 44 28 23 21 26 7 341 327 315 308 314 318 315 314 323 325 330 332 325 328 331 332 328 321 309 295 287 284 283 282 281 279 276 273 273 271 271 271 271
136 126 116 96 96 80 18 352 356 351 341 326 319 306 298 305 311 306 301 320 328 328 327 327 331 333 334 332 322 313 306 299 293 289 286 283 282 280 277 274 272 272 270 270
135 124 118 120 124 293 308 330 343 336 333 330 326 322 310 297 291 304 312 317 323 325 321 325 329 331 331 320 314 307 302 296 291 288 287 288 286 282 278 276 271 270 270 269
134 155 192 226 248 279 295 298 310 319 319 318 320 319 314 308 301 302 308 313 313 316 314 311 314 316 310 307 303 300 296 297 298 297 290 286 284 283 280 278 277 272 270 269
88 64 23 332 309 285 279 276 283 294 297 293 298 308 311 310 308 309 310 311 312 309 305 303 302 300 299 297 295 293 290 288 286 284 283 281 279 278 279 279 278 276 273 270
Height
1468 1467 1467 1466 1465 1465 1465 1461 1456 1448 1448 1449 1452 1454 1452 1450 1448 1446 1444 1443 1442 1441 1441 1441 1442 1442 1443 1444 1445 1446 1447 1448 1450 1452 1454 1455 1457 1458 1460 1462 1464 1466 1467 1469
1470 1466 1465 1465 1462 1462 1463 1462 1459 1454 1452 1453 1454 1454 1451 1449 1447 1445 1443 1442 1440 1439 1439 1439 1439 1440 1440 1441 1442 1443 1444 1445 1447 1448 1450 1451 1453 1455 1456 1458 1459 1461 1463 1464
1462 1464 1463 1457 1458 1460 1459 1459 1458 1453 1453 1455 1454 1452 1451 1449 1447 1445 1443 1441 1439 1438 1437 1437 1437 1438 1438 1439 1440 1440 1441 1442 1443 1444 1446 1448 1449 1450 1452 1454 1455 1457 1459 1460
1464 1466 1460 1454 1460 1459 1458 1457 1458 1457 1456 1455 1454 1451 1450 1448 1446 1444 1442 1440 1438 1437 1436 1436 1436 1436 1436 1437 1437 1438 1438 1439 1440 1441 1442 1444 1445 1446 1448 1449 1451 1452 1454 1456
1464 1457 1451 1455 1460 1461 1460 1455 1457 1456 1455 1454 1453 1450 1447 1446 1445 1443 1441 1439 1437 1436 1435 1434 1434 1434 1434 1434 1435 1435 1435 1436 1437 1437 1439 1440 1441 1443 1444 1446 1447 1448 1450 1451
1463 1456 1449 1451 1460 1460 1460 1452 1455 1455 1454 1454 1453 1447 1445 1445 1443 1441 1439 1438 1436 1434 1433 1433 1432 1432 1432 1432 1433 1433 1433 1434 1434 1435 1436 1437 1438 1440 1441 1442 1443 1445 1446 1448
1462 1457 1451 1459 1461 1460 1456 1450 1455 1454 1453 1453 1452 1449 1447 1444 1442 1440 1438 1436 1435 1434 1433 1432 1432 1431 1431 1431 1431 1432 1432 1432 1433 1433 1434 1435 1436 1437 1438 1439 1440 1441 1443 1444
1463 1458 1455 1460 1460 1458 1455 1455 1454 1452 1451 1451 1449 1447 1445 1443 1441 1439 1437 1435 1434 1433 1432 1432 1431 1430 1430 1430 1430 1430 1430 1431 1431 1432 1432 1433 1433 1434 1435 1436 1437 1438 1439 1440
1461 1458 1458 1458 1457 1457 1456 1454 1453 1451 1450 1448 1447 1445 1443 1441 1440 1438 1436 1435 1434 1433 1432 1431 1431 1430 1429 1429 1429 1429 1429 1429 1430 1430 1430 1431 1432 1432 1433 1434 1435 1435 1436 1437
1462 1458 1458 1457 1456 1455 1454 1452 1451 1450 1448 1446 1445 1443 1441 1440 1438 1437 1436 1435 1433 1432 1431 1431 1431 1430 1429 1429 1429 1428 1428 1428 1428 1428 1429 1429 1430 1430 1431 1432 1432 1433 1433 1434
1459 1457 1456 1454 1453 1452 1451 1450 1449 1448 1446 1445 1443 1441 1440 1439 1437 1436 1435 1434 1433 1432 1431 1431 1430 1429 1429 1428 1428 1427 1427 1427 1427 1427 1427 1427 1428 1428 1429 1430 1430 1431 1431 1431
1452 1453 1453 1452 1451 1450 1449 1448 1447 1445 1444 1443 1442 1440 1439 1438 1437 1435 1434 1433 1433 1432 1431 1430 1430 1429 1428 1428 1427 1426 1426 1426 1426 1426 1426 1426 1426 1426 1427 1427 1428 1428 1428 1429
1452 1451 1450 1449 1449 1448 1447 1446 1445 1444 1443 1441 1440 1439 1438 1436 1435 1435 1434 1433 1432 1431 1430 1430 1429 1428 1427 1427 1426 1425 1425 1425 1425 1425 1425 1425 1424 1424 1424 1425 1425 1426 1426 1427
1449 1449 1448 1447 1447 1446 1445 1444 1443 1442 1441 1440 1439 1438 1436 1435 1434 1433 1433 1432 1431 1430 1429 1429 1428 1427 1426 1426 1425 1424 1424 1424 1423 1423 1423 1423 1423 1423 1423 1423 1423 1423 1424 1424
1447 1446 1446 1445 1445 1444 1443 1442 1441 1440 1440 1439 1438 1437 1436 1434 1433 1432 1432 1431 1430 1429 1428 1427 1426 1426 1425 1424 1423 1423 1422 1422 1422 1421 1421 1421 1421 1421 1421 1421 1421 1421 1421 1422
1444 1444 1443 1443 1442 1442 1441 1440 1439 1439 1438 1437 1436 1436 1435 1434 1433 1432 1431 1430 1429 1428 1427 1426 1425 1425 1424 1423 1422 1421 1421 1420 1420 1420 1420 1419 1419 1419 1419 1419 1419 1419 1419 1420
1442 1441 1441 1441 1440 1440 1439 1439 1438 1437 1437 1436 1435 1435 1434 1433 1432 1431 1430 1429 1428 1427 1426 1425 1424 1423 1422 1422 1421 1420 1419 1419 1418 1418 1418 1418 1418 1417 1417 1417 1417 1417 1417 1418
1440 1440 1440 1439 1438 1438 1437 1437 1436 1436 1435 1435 1434 1433 1432 1431 1430 1429 1429 1428 1427 1426 1425 1424 1423 1422 1421 1420 1419 1418 1418 1417 1417 1416 1416 1416 1416 1416 1416 1416 1415 1415 1415 1415
1438 1438 1438 1437 1437 1436 1436 1435 1435 1434 1434 1433 1432 1431 1431 1430 1429 1428 1428 1426 1425 1424 1424 1423 1422 1421 1420 1419 1418 1417 1416 1416 1415 1415 1414 1414 1414 1414 1414 1413 1413 1413 1413 1413
1436 1436 1436 1436 1436 1435 1434 1434 1433 1433 1432 1432 1431 1430 1429 1429 1428 1427 1426 1425 1424 1423 1423 1422 1421 1419 1419 1418 1417 1416 1415 1414 1414 1413 1412 1412 1412 1411 1411 1411 1411 1411 1410 1410
1436 1436 1435 1435 1435 1434 1433 1433 1432 1432 1431 1430 1430 1429 1428 1427 1427 1426 1424 1423 1423 1422 1421 1420 1419 1418 1418 1416 1415 1414 1413 1412 1412 1411 1411 1410 1410 1409 1409 1408 1408 1408 1407 1407
1435 1435 1435 1434 1434 1433 1433 1432 1431 1431 1430 1429 1429 1428 1427 1426 1425 1424 1423 1423 1422 1421 1420 1419 1418 1417 1416 1415 1414 1412 1411 1411 1410 1409 1408 1408 1407 1406 1406 1406 1405 1405 1404 1404
1434 1434 1434 1434 1433 1432 1432 1431 1431 1430 1429 1428 1428 1427 1426 1425 1424 1423 1422 1422 1420 1419 1418 1417 1416 1415 1414 1413 1412 1410 1409 1408 1407 1406 1406 1405 1404 1404 1403 1402 1402 1401 1401 1400
1433 1433 1433 1433 1432 1431 1431 1430 1430 1429 1428 1427 1427 1426 1425 1424 1423 1422 1421 1420 1419 1418 1416 1415 1414 1413 1412 1411 1409 1408 1407 1406 1405 1404 1403 1402 1401 1400 1399 1399 1398 1397 1397 1396
1432 1432 1432 1431 1431 1430 1430 1429 1428 1428 1427 1426 1425 1424 1423 1422 1421 1420 1419 1418 1417 1416 1414 1413 1412 1411 1409 1408 1407 1405 1404 1403 1402 1401 1399 1398 1397 1396 1395 1395 1394 1393 1392 1392
1431 1430 1430 1430 1429 1429 1428 1427 1427 1426 1425 1424 1423 1422 1422 1420 1419 1418 1417 1416 1414 1413 1412 1410 1409 1408 1407 1405 1404 1403 1401 1400 1399 1397 1396 1395 1393 1392 1391 1390 1390 1389 1388 1387
1429 1429 1428 1428 1428 1427 1426 1426 1425 1424 1423 1422 1421 1420 1419 1418 1417 1416 1414 1413 1412 1410 1409 1408 1406 1405 1404 1402 1401 1399 1398 1397 1395 1394 1392 1391 1390 1388 1387 1386 1385 1384 1383 1383